Chiang Mai, Thailand

8:49 PM +07 on November 24, 2017 (GMT +0700)
Chiang Mai International

Weather History for VTCC - September, 2012

Change the Weather History Date:

Wednesday, September 12, 2012

  Actual Average Record
Temperature  
Mean Temperature 85 °F -  
Max Temperature 94 °F 85 °F 96 °F (2014)
Min Temperature 76 °F 71 °F 73 °F (1999)
Cooling Degree Days 20    
Growing Degree Days 35 (Base 50)    
Moisture  
Dew Point 71 °F    
Average Humidity 68    
Maximum Humidity 89    
Minimum Humidity 43    
Precipitation  
Precipitation 0.00 in 0.24 in - ()
Sea Level Pressure  
Sea Level Pressure 29.82 in    
Wind  
Wind Speed 3 mph ()    
Max Wind Speed 9 mph    
Max Gust Speed -    
Visibility 6.2 miles    
Events      
Averages and records for this station are not official NWS values.
T = Trace of Precipitation, MM = Missing Value Source: Averaged Metar Reports

Daily Weather History Graph

Daily Weather History Graph

Search for Another Location

Airport or City:

Trip Planner

Search our weather history database for the weather conditions in past years. The results will help you decide how hot, cold, wet, or windy it might be!

Date:

Astronomy

Sep. 12, 2012 Rise Set
Actual Time 6:11 AM +07 6:29 PM +07
Civil Twilight 5:49 AM +07 6:51 PM +07
Nautical Twilight 5:23 AM +07 7:16 PM +07
Astronomical Twilight 4:58 AM +07 7:42 PM +07
Moon 2:24 AM +07 (9/12) 3:34 PM +07 (9/12)
Length of Visible Light 13h 01m
Length of Day
12h 17m
Waning Crescent, 17% of the Moon is Illuminated
Sep 12
Waning Crescent
Sep 16
New
Sep 23
First Quarter
Sep 30
Full
Oct 8
Last Quarter

Hourly Weather History & Observations

Time (+07) Temp. Heat Index Dew Point Humidity Pressure Visibility Wind Dir Wind Speed Gust Speed Precip Events Conditions
12:00 AM 78.8 °F - 71.6 °F 78% 29.86 in 6.2 mi SW 5.8 mph - N/A   Scattered Clouds
12:30 AM 78.8 °F - 71.6 °F 78% 29.86 in 6.2 mi SSW 3.5 mph - N/A   Scattered Clouds
1:00 AM 79 °F - 73 °F 78% 29.79 in 6 mi Calm Calm - -   Scattered Clouds
1:30 AM 78.8 °F - 71.6 °F 78% 29.86 in 6.2 mi SW 3.5 mph - N/A   Scattered Clouds
2:00 AM 78.8 °F - 71.6 °F 78% 29.83 in 6.2 mi SW 3.5 mph - N/A   Scattered Clouds
3:00 AM 77.0 °F - 71.6 °F 83% 29.83 in 6.2 mi Calm Calm - N/A   Scattered Clouds
3:30 AM 77.0 °F - 71.6 °F 83% 29.83 in 6.2 mi NW 2.3 mph - N/A   Scattered Clouds
4:00 AM 77.0 °F - 71.6 °F 83% 29.83 in 6.2 mi Calm Calm - N/A   Scattered Clouds
4:30 AM 77.0 °F - 71.6 °F 83% 29.83 in 6.2 mi Calm Calm - N/A   Scattered Clouds
5:00 AM 77.0 °F - 71.6 °F 83% 29.83 in 6.2 mi SE 2.3 mph - N/A   Scattered Clouds
5:30 AM 77.0 °F - 71.6 °F 83% 29.83 in 6.2 mi SSE 2.3 mph - N/A   Scattered Clouds
6:00 AM 77.0 °F - 71.6 °F 83% 29.86 in 6.2 mi SE 2.3 mph - N/A   Scattered Clouds
6:30 AM 75.2 °F - 71.6 °F 89% 29.86 in 6.2 mi SE 2.3 mph - N/A   Scattered Clouds
7:00 AM 77 °F - 74 °F 87% 29.82 in 6 mi Calm Calm - -   Partly Cloudy
7:00 AM 77.0 °F - 73.4 °F 89% 29.86 in 6.2 mi SSE 2.3 mph - N/A   Scattered Clouds
7:30 AM 77.0 °F - 71.6 °F 83% 29.89 in 6.2 mi SW 4.6 mph - N/A   Mostly Cloudy
8:00 AM 77.0 °F - 71.6 °F 83% 29.89 in 6.2 mi WSW 3.5 mph - N/A   Mostly Cloudy
8:30 AM 78.8 °F - 71.6 °F 78% 29.89 in 6.2 mi WSW 3.5 mph - N/A   Mostly Cloudy
9:00 AM 78.8 °F - 71.6 °F 78% 29.89 in 6.2 mi SSW 4.6 mph - N/A   Mostly Cloudy
9:30 AM 80.6 °F 84.6 °F 71.6 °F 74% 29.89 in 6.2 mi SSW 6.9 mph - N/A   Scattered Clouds
10:00 AM 84.2 °F 89.6 °F 71.6 °F 66% 29.89 in 6.2 mi SSW 4.6 mph - N/A   Scattered Clouds
10:30 AM 84.2 °F 88.4 °F 69.8 °F 62% 29.89 in 6.2 mi ESE 4.6 mph - N/A   Scattered Clouds
11:00 AM 86.0 °F 91.8 °F 71.6 °F 62% 29.89 in 6.2 mi ESE 3.5 mph - N/A   Scattered Clouds
11:30 AM 86.0 °F 90.4 °F 69.8 °F 58% 29.86 in 6.2 mi SW 4.6 mph - N/A   Scattered Clouds
12:00 PM 87.8 °F 92.6 °F 69.8 °F 55% 29.86 in 6.2 mi SW 5.8 mph - N/A   Scattered Clouds
12:30 PM 87.8 °F 92.6 °F 69.8 °F 55% 29.83 in 6.2 mi South 5.8 mph - N/A   Scattered Clouds
1:00 PM 90 °F - 72 °F 46% 29.74 in 6 mi Calm Calm - -   Scattered Clouds
1:00 PM 87.8 °F 92.6 °F 69.8 °F 55% 29.83 in 6.2 mi SSW 8.1 mph - N/A   Scattered Clouds
1:30 PM 89.6 °F 93.4 °F 68.0 °F 49% 29.80 in 6.2 mi South 8.1 mph - N/A   Partly Cloudy
2:00 PM 91.4 °F 96.8 °F 69.8 °F 49% 29.77 in 6.2 mi SW 6.9 mph - N/A   Partly Cloudy
2:30 PM 89.6 °F 92.2 °F 66.2 °F 46% 29.74 in 6.2 mi SW 9.2 mph - N/A   Partly Cloudy
3:00 PM 89.6 °F 92.2 °F 66.2 °F 46% 29.74 in 6.2 mi SSW 9.2 mph - N/A   Partly Cloudy
3:30 PM 91.4 °F 95.4 °F 68.0 °F 46% 29.74 in 6.2 mi SSW 9.2 mph - N/A   Partly Cloudy
4:00 PM 91.4 °F 94.0 °F 66.2 °F 43% 29.71 in 6.2 mi SW 6.9 mph - N/A   Partly Cloudy
4:30 PM 91.4 °F 95.4 °F 68.0 °F 46% 29.71 in 6.2 mi SSW 6.9 mph - N/A   Partly Cloudy
5:00 PM 91.4 °F 94.0 °F 66.2 °F 43% 29.71 in 6.2 mi SSW 5.8 mph - N/A   Partly Cloudy
5:30 PM 91.4 °F 94.0 °F 66.2 °F 43% 29.71 in 6.2 mi South 4.6 mph - N/A   Partly Cloudy
6:00 PM 89.6 °F 93.4 °F 68.0 °F 49% 29.74 in 6.2 mi SE 5.8 mph - N/A   Partly Cloudy
6:30 PM 87.8 °F 92.6 °F 69.8 °F 55% 29.74 in 6.2 mi SE 4.6 mph - N/A   Scattered Clouds
7:00 PM 88 °F - 74 °F 55% 29.69 in 6 mi Calm Calm - -   Scattered Clouds
7:00 PM 87.8 °F 93.8 °F 71.6 °F 58% 29.77 in 6.2 mi South 4.6 mph - N/A   Scattered Clouds
7:30 PM 86.0 °F 91.8 °F 71.6 °F 62% 29.77 in 6.2 mi SW 5.8 mph - N/A   Scattered Clouds
8:00 PM 84.2 °F 89.6 °F 71.6 °F 66% 29.80 in 6.2 mi West 5.8 mph - N/A   Scattered Clouds
8:30 PM 82.4 °F 87.2 °F 71.6 °F 70% 29.80 in 6.2 mi West 3.5 mph - N/A   Scattered Clouds
9:00 PM 80.6 °F 85.4 °F 73.4 °F 79% 29.83 in 6.2 mi West 3.5 mph - N/A   Scattered Clouds
9:30 PM 80.6 °F 85.4 °F 73.4 °F 79% 29.83 in 6.2 mi NW 2.3 mph - N/A   Scattered Clouds
10:00 PM 80.6 °F 85.4 °F 73.4 °F 79% 29.86 in 6.2 mi NNW 2.3 mph - N/A   Scattered Clouds
10:30 PM 80.6 °F 85.4 °F 73.4 °F 79% 29.86 in 6.2 mi Calm Calm - N/A   Scattered Clouds
11:00 PM 78.8 °F - 73.4 °F 83% 29.86 in 6.2 mi WNW 3.5 mph - N/A   Scattered Clouds
11:30 PM 78.8 °F - 73.4 °F 83% 29.86 in 6.2 mi West 2.3 mph - N/A   Scattered Clouds